Regional Weather Roundup
Issued by NWS Cleveland, OH

Home | Current Version | Previous Version | Text Only | Print | Product List | Glossary Off
Versions: 1 2 3 4 5 6 7 8 9 10 11 12 13 14 15 16 17 18 19 20 21 22 23 24 25 26 27 28 29 30 31 32 33 34 35 36 37 38 39 40 41 42 43 44 45 46 47 48 49 50

000
ASUS41 KCLE 200500
RWRCLE
OHIO REGIONAL WEATHER ROUNDUP
NATIONAL WEATHER SERVICE WILMINGTON, OH
100 AM EDT FRI OCT 20 2017

NOTE: "FAIR" INDICATES FEW OR NO CLOUDS BELOW 12,000 FEET WITH NO
SIGNIFICANT WEATHER AND/OR OBSTRUCTIONS TO VISIBILITY.

OHZ001>008-015>018-024>027-034-035-043-044-200600-
   NORTHWEST OHIO

CITY           SKY/WX    TMP DP  RH WIND       PRES   REMARKS
DEFIANCE       FAIR      44  39  82 CALM      30.21S
FINDLAY        FAIR      51  42  71 W3        30.20R
TOLEDO EXPRESS FAIR      47  40  76 CALM      30.20S
TOLEDO EXEC    FAIR      49  37  63 W5        30.21R
LIMA           FAIR      46  45  96 SW3       30.21S
$$

OHZ009>014-019>023-028>033-038-089-200600-
   NORTHEAST OHIO

CITY           SKY/WX    TMP DP  RH WIND       PRES   REMARKS
CLE-HOPKINS    FAIR      51  47  86 CALM      30.21R
CLE-LAKEFRONT  FAIR      63  40  42 N8        30.18R
CUY CO. ARPT   NOT AVBL
LORAIN-ELYRIA  FAIR      47  41  80 CALM      30.20R
ASHTABULA      FAIR      48  47  96 CALM      30.19R FOG
AKRON-CANTON   FAIR      56  47  71 W3        30.20R
WOOSTER        NOT AVBL
MANSFIELD      FAIR      56  48  74 SW5       30.21R
YOUNGSTOWN     FAIR      52  49  89 SW3       30.19R
$$

OHZ042-051>053-060>062-070>072-077>081-200600-
  SOUTHWEST OHIO

CITY           SKY/WX    TMP DP  RH WIND       PRES   REMARKS
CINC-COVINGTON FAIR      57  52  83 CALM      30.23S
CINC-LUNKEN    FAIR      49  49 100 CALM      30.24F FOG
HAMILTON       FAIR      47  47 100 CALM      30.24S
DAYTON         NOT AVBL
WRIGHT-PAT AFB FAIR      55  52  88 S3        30.22S
DAYTON GENERAL FAIR      58  50  75 CALM      30.22S
WILMINGTON     FAIR      55  51  86 W7        30.23S
$$

OHZ036-037-039>041-045>050-054>059-063>069-073>076-082>088-200600-
  CENTRAL AND SOUTHEAST OHIO

CITY           SKY/WX    TMP DP  RH WIND       PRES   REMARKS
COLUMBUS       FAIR      54  50  86 CALM      30.21S
OSU AIRPORT    FAIR      54  51  90 W3        30.21S
BOLTON FIELD   NOT AVBL
RICKENBACK AFB NOT AVBL
NEWARK         FAIR      52  47  83 CALM      30.21R
MARION         FAIR      50  45  83 SW3       30.22R
LANCASTER      FAIR      56  49  77 SW5       30.22S
ZANESVILLE     FAIR      52  47  83 CALM      30.22R
NEW PHILLY     FAIR      51  47  86 E3        30.22R
$$




USA.gov is the U.S. government's official web portal to all federal, state and local government web resources and services.